Satellite-Ground Cal/Val Site Overpasses Predictions

Prediction of Satellite NPP Overpassing Cal/Val Site: Antarctic Dome C

Ground Cal/Val Site Location: Latitude: -75.10, Longitude: 123.35; Satellite-Ground Site NADIR distance within 100 km.

Table of predicted overpasses for the next 14.0 days since TLE Epoch: 9/12/2015
Interval Starting Time Ending Time Minimum Distance Time Minimum Distance (km)
1 09/12/2015 07:47:22 09/12/2015 07:47:42 09/12/2015 07:47:32 72.98
2 09/13/2015 07:28:29 09/13/2015 07:28:56 09/13/2015 07:28:42 35.09
3 09/15/2015 15:10:51 09/15/2015 15:11:02 09/15/2015 15:10:56 92.09
4 09/16/2015 14:51:50 09/16/2015 14:52:19 09/16/2015 14:52:05 19.33
5 09/18/2015 07:34:37 09/18/2015 07:35:07 09/18/2015 07:34:52 1.67
6 09/21/2015 14:58:01 09/21/2015 14:58:29 09/21/2015 14:58:15 16.96
7 09/22/2015 14:39:18 09/22/2015 14:39:30 09/22/2015 14:39:24 89.96
8 09/23/2015 07:40:49 09/23/2015 07:41:16 09/23/2015 07:41:02 37.13


NCC Satellite Cal/Val Overpasses Prediction Service
